Lahr, Germany

12:21 AM CEST on October 23, 2019 (GMT +0200)
Lahr

Weather History for EDTL - September, 2019

Change the Weather History Date:

Monday, September 16, 2019

  Actual Average (LFST) Record (LFST)
Temperature  
Mean Temperature 68 °F -  
Max Temperature 80 °F 68 °F 84 °F (2019)
Min Temperature 56 °F 48 °F 41 °F (1997)
Cooling Degree Days 3    
Growing Degree Days 18 (Base 50)    
Moisture  
Dew Point 59 °F    
Average Humidity 66    
Maximum Humidity 100    
Minimum Humidity 38    
Precipitation  
Precipitation 0.00 in - - ()
Sea Level Pressure  
Sea Level Pressure 30.09 in    
Wind  
Wind Speed 3 mph ()    
Max Wind Speed 7 mph    
Max Gust Speed -    
Visibility 7.0 miles    
Events      
Averages and records for this station are not official NWS values.
T = Trace of Precipitation, MM = Missing Value Source: Averaged Metar Reports

Daily Weather History Graph

Daily Weather History Graph

Search for Another Location

Airport or City:

Astronomy

Sep. 16, 2019 Rise Set
Actual Time 7:06 AM CEST 7:40 PM CEST
Civil Twilight 6:34 AM CEST 8:11 PM CEST
Nautical Twilight 5:57 AM CEST 8:48 PM CEST
Astronomical Twilight 5:18 AM CEST 9:27 PM CEST
Moon 8:59 PM CEST (9/16) 9:03 AM CEST (9/16)
Length of Visible Light 13h 36m
Length of Day
12h 33m
Waning Gibbous, 96% of the Moon is Illuminated
Sep 16
Waning Gibbous
Sep 22
Last Quarter
Sep 28
New
Oct 5
First Quarter
Oct 13
Full

Hourly Weather History & Observations

Time (CEST) Temp. Heat Index Dew Point Humidity Pressure Visibility Wind Dir Wind Speed Gust Speed Precip Events Conditions
4:00 AM 58 °F - 56 °F 91% 30.15 in 11 mi WSW 2.2 mph - -  
7:00 AM 56 °F - 55 °F 95% 30.14 in 3 mi North 2.2 mph - -   Mist
7:20 AM 59.0 °F - 57.2 °F 94% 30.12 in - Calm Calm - N/A   Clear
7:50 AM 57.2 °F - 55.4 °F 94% 30.12 in - Calm Calm - N/A   Clear
8:20 AM 59.0 °F - 59.0 °F 100% 30.12 in - Calm Calm - N/A   Clear
8:50 AM 62.6 °F - 59.0 °F 88% 30.12 in - Variable 2.3 mph - N/A   Clear
9:00 AM 62 °F - 57 °F 79% 30.14 in 7 mi North 2.2 mph - -   Clear
9:20 AM 64.4 °F - 60.8 °F 88% 30.12 in - Variable 1.2 mph - N/A   Clear
9:50 AM 66.2 °F - 60.8 °F 83% 30.15 in - Variable 2.3 mph - N/A   Clear
10:20 AM 66.2 °F - 60.8 °F 83% 30.15 in - NNW 5.8 mph - N/A   Clear
10:50 AM 69.8 °F - 62.6 °F 78% 30.12 in - Variable 1.2 mph - N/A   Clear
11:20 AM 69.8 °F - 62.6 °F 78% 30.15 in - Variable 2.3 mph - N/A   Clear
11:50 AM 71.6 °F - 60.8 °F 69% 30.12 in - Variable 3.5 mph - N/A   Clear
12:20 PM 73.4 °F - 60.8 °F 65% 30.12 in - Variable 2.3 mph - N/A   Clear
12:50 PM 75.2 °F - 60.8 °F 61% 30.12 in - Variable 3.5 mph - N/A   Clear
1:20 PM 75.2 °F - 60.8 °F 61% 30.12 in - Variable 2.3 mph - N/A   Clear
1:50 PM 77.0 °F - 60.8 °F 57% 30.09 in - Variable 2.3 mph - N/A   Clear
2:20 PM 77.0 °F - 60.8 °F 57% 30.09 in - NNE 3.5 mph - N/A   Clear
2:50 PM 80.6 °F 81.5 °F 60.8 °F 51% 30.09 in - NNE 6.9 mph - N/A   Clear
3:20 PM 78.8 °F - 60.8 °F 54% 30.06 in - North 4.6 mph - N/A   Clear
3:50 PM 78.8 °F - 60.8 °F 54% 30.06 in - NNE 5.8 mph - N/A   Clear
4:00 PM 80 °F - 60 °F 40% 30.05 in 28 mi ENE 4.5 mph - -  
4:20 PM 80.6 °F 81.5 °F 60.8 °F 51% 30.06 in - NNE 5.8 mph - N/A   Clear
4:50 PM 80.6 °F 81.1 °F 59.0 °F 48% 30.06 in - NNE 6.9 mph - N/A   Clear
5:20 PM 80.6 °F 80.8 °F 57.2 °F 45% 30.06 in - Variable 3.5 mph - N/A   Clear
5:50 PM 78.8 °F - 55.4 °F 44% 30.04 in - NNE 4.6 mph - N/A   Clear
6:00 PM 78 °F - 57 °F 38% 30.04 in 40 mi NNE 6.7 mph - -   Overcast
6:20 PM 77.0 °F - 55.4 °F 47% 30.04 in - NE 5.8 mph - N/A   Clear
6:50 PM 75.2 °F - 59.0 °F 57% 30.04 in - North 5.8 mph - N/A   Clear
7:20 PM 73.4 °F - 59.0 °F 61% 30.04 in - NNE 5.8 mph - N/A   Clear
7:50 PM 73.4 °F - 59.0 °F 61% 30.06 in - NNE 4.6 mph - N/A   Clear
9:00 PM 68 °F - 55 °F 53% 30.07 in 44 mi ENE 4.5 mph - -   Overcast